TINTIN A (43216 NORAD) Tracking and Keplerian Element Data

This shows tracking and keplerian element data for the satellite.

Feedback or suggestion? Click here.




ElementValue
Catalog43216
NameTINTIN A
Epoch Orbit5958
Epoch Day80.96056976
Epoch Year2019
RAAN89.9318
Inclination97.455
Eccentricity0.0012433
Argument of Perigee356.2787
Mean Anonmoly3.8354
Mean Motion15.19902992
Decay Rate1.156E-05
L11 43216U 18020B 19080.96056976 .00001156 00000-0 56955-4 0 9990
L22 43216 97.4550 89.9318 0012433 356.2787 3.8354 15.19902992 59584

Live tracking and technical data element details for TINTIN A (NORAD 43216). TINTIN A can be tracked NOW for your location showing map with azimuth and elevation plus other details from your city location.

Track the satellite on the map from your city or location and see movement details for azimuth, elevation, latitude, longitude, range, height, and movement on the map or in text.







IsCatalogInMostPopularTable: catalog: 43216, numindb: 261
Update: records affected: 1



GetName: 43216 TINTIN A

Hit Count: updated at: Sat, 23 Mar 2019 02:56:54 GMT